| time (UTC) | temp F | wind direction | speed knots | gust knots | rain 1hr in | rain 24hr in | rain mn in | humidity % | barometer mb |
| 20260507035313 | 45 | 135 | 2.6 | 2.6 | 0.00 | 0.00 | 0.00 | 86 | 1100.0 |
| 20260507034313 | 45 | 135 | 2.6 | 2.6 | 0.00 | 0.00 | 0.00 | 86 | 1100.0 |
| 20260507033313 | 46 | 247 | 3.5 | 2.6 | 0.00 | 0.00 | 0.00 | 86 | 1100.0 |
| 20260507032313 | 46 | 247 | 3.5 | 2.6 | 0.00 | 0.00 | 0.00 | 86 | 1100.0 |
| 20260507031312 | 46 | 22 | 3.5 | 3.5 | 0.00 | 0.00 | 0.00 | 85 | 1100.0 |
| 20260507030312 | 46 | 22 | 3.5 | 3.5 | 0.00 | 0.00 | 0.00 | 85 | 1100.0 |
| 20260507025312 | 46 | 337 | 5.2 | 11.3 | 0.00 | 0.00 | 0.00 | 85 | 1100.0 |
| 20260507024314 | 46 | 337 | 5.2 | 11.3 | 0.00 | 0.00 | 0.00 | 85 | 1100.0 |
| 20260507023312 | 47 | 337 | 4.3 | 6.1 | 0.00 | 0.00 | 0.00 | 85 | 1100.0 |
| 20260507022313 | 47 | 337 | 4.3 | 6.1 | 0.00 | 0.00 | 0.00 | 85 | 1100.0 |
| 20260507021313 | 47 | 45 | 4.3 | 3.5 | 0.00 | 0.00 | 0.00 | 85 | 1100.0 |
| 20260507020313 | 47 | 45 | 4.3 | 3.5 | 0.00 | 0.00 | 0.00 | 85 | 1100.0 |
| 20260507015311 | 47 | 360 | 4.3 | 6.1 | 0.00 | 0.00 | 0.00 | 85 | 1100.0 |
| 20260507014311 | 47 | 360 | 4.3 | 6.1 | 0.00 | 0.00 | 0.00 | 85 | 1100.0 |
| 20260507013312 | 48 | 360 | 4.3 | 6.1 | 0.00 | 0.00 | 0.00 | 85 | 1100.0 |
| 20260507012312 | 48 | 360 | 4.3 | 6.1 | 0.00 | 0.00 | 0.00 | 85 | 1100.0 |
| 20260507011311 | 48 | 337 | 4.3 | 6.1 | 0.00 | 0.00 | 0.00 | 85 | 1100.0 |
| 20260507010312 | 48 | 337 | 4.3 | 6.1 | 0.00 | 0.00 | 0.00 | 85 | 1100.0 |
| 20260507005311 | 48 | 337 | 4.3 | 11.3 | 0.00 | 0.00 | 0.00 | 85 | 1100.0 |
| 20260507004310 | 48 | 337 | 4.3 | 11.3 | 0.00 | 0.00 | 0.00 | 85 | 1100.0 |
| 20260507003311 | 49 | 292 | 4.3 | 5.2 | 0.00 | 0.00 | 0.00 | 85 | 1100.0 |
| 20260507002310 | 49 | 292 | 4.3 | 5.2 | 0.00 | 0.00 | 0.00 | 85 | 1100.0 |
| 20260507001310 | 49 | 292 | 4.3 | 8.7 | 0.00 | 0.00 | 0.00 | 85 | 1100.0 |
| 20260507000310 | 49 | 292 | 4.3 | 8.7 | 0.00 | 0.00 | 0.00 | 85 | 1100.0 |
| 20260506235310 | 49 | 337 | 3.5 | 4.3 | 0.00 | 0.00 | 0.00 | 85 | 1100.0 |
| 20260506234310 | 49 | 337 | 3.5 | 4.3 | 0.00 | 0.00 | 0.00 | 85 | 1100.0 |
| 20260506233309 | 49 | 360 | 3.5 | 9.6 | 0.00 | 0.00 | 0.00 | 84 | 1100.0 |
| 20260506232314 | 49 | 360 | 3.5 | 9.6 | 0.00 | 0.00 | 0.00 | 84 | 1100.0 |
| 20260506231314 | 50 | 360 | 2.6 | 5.2 | 0.00 | 0.00 | 0.00 | 83 | 1100.0 |
| 20260506230316 | 50 | 360 | 2.6 | 5.2 | 0.00 | 0.00 | 0.00 | 83 | 1100.0 |
| 20260506225315 | 50 | 360 | 2.6 | 7.8 | 0.00 | 0.00 | 0.00 | 84 | 1100.0 |
| 20260506224314 | 50 | 360 | 2.6 | 7.8 | 0.00 | 0.00 | 0.00 | 84 | 1100.0 |
| 20260506223313 | 51 | 315 | 2.6 | 7.0 | 0.00 | 0.00 | 0.00 | 84 | 1100.0 |
| 20260506222313 | 51 | 315 | 2.6 | 7.0 | 0.00 | 0.00 | 0.00 | 84 | 1100.0 |
| 20260506221314 | 51 | 315 | 4.3 | 5.2 | 0.00 | 0.00 | 0.00 | 84 | 1100.0 |
| 20260506220314 | 51 | 315 | 4.3 | 5.2 | 0.00 | 0.00 | 0.00 | 84 | 1100.0 |
| 20260506215313 | 50 | 67 | 3.5 | 2.6 | 0.00 | 0.00 | 0.00 | 82 | 1100.0 |
| 20260506214314 | 50 | 67 | 3.5 | 2.6 | 0.00 | 0.00 | 0.00 | 82 | 1100.0 |
| 20260506213313 | 50 | 45 | 1.7 | 3.5 | 0.00 | 0.00 | 0.00 | 80 | 1100.0 |
| 20260506212312 | 50 | 45 | 1.7 | 3.5 | 0.00 | 0.00 | 0.00 | 80 | 1100.0 |
| 20260506211314 | 51 | 315 | 0.9 | 1.7 | 0.00 | 0.00 | 0.00 | 80 | 1100.0 |
| 20260506210312 | 51 | 315 | 0.9 | 1.7 | 0.00 | 0.00 | 0.00 | 80 | 1100.0 |
| 20260506205312 | 52 | 360 | 0.9 | 1.7 | 0.00 | 0.00 | 0.00 | 78 | 1100.0 |
| 20260506204312 | 52 | 360 | 0.9 | 1.7 | 0.00 | 0.00 | 0.00 | 78 | 1100.0 |
| 20260506203312 | 53 | 360 | 1.7 | 2.6 | 0.00 | 0.00 | 0.00 | 76 | 1100.0 |
| 20260506202312 | 53 | 360 | 1.7 | 2.6 | 0.00 | 0.00 | 0.00 | 76 | 1100.0 |
| 20260506201311 | 54 | 45 | 2.6 | 5.2 | 0.00 | 0.00 | 0.00 | 71 | 1100.0 |
| 20260506200313 | 54 | 45 | 2.6 | 5.2 | 0.00 | 0.00 | 0.00 | 71 | 1100.0 |
| 20260506195312 | 56 | 22 | 2.6 | 1.7 | 0.00 | 0.00 | 0.00 | 69 | 1100.0 |
| 20260506194312 | 56 | 22 | 2.6 | 1.7 | 0.00 | 0.00 | 0.00 | 69 | 1100.0 |
| 20260506193313 | 58 | 67 | 4.3 | 3.5 | 0.00 | 0.00 | 0.00 | 64 | 1100.0 |
| 20260506192311 | 58 | 67 | 4.3 | 3.5 | 0.00 | 0.00 | 0.00 | 64 | 1100.0 |
| 20260506191312 | 60 | 292 | 2.6 | 2.6 | 0.00 | 0.00 | 0.00 | 52 | 1100.0 |
| 20260506190312 | 60 | 292 | 2.6 | 2.6 | 0.00 | 0.00 | 0.00 | 52 | 1100.0 |
| 20260506185310 | 61 | 360 | 5.2 | 6.1 | 0.00 | 0.00 | 0.00 | 51 | 1100.0 |
| 20260506184310 | 61 | 360 | 5.2 | 6.1 | 0.00 | 0.00 | 0.00 | 51 | 1100.0 |
| 20260506183310 | 62 | 292 | 3.5 | 4.3 | 0.00 | 0.00 | 0.00 | 51 | 1100.0 |
| 20260506182310 | 62 | 292 | 3.5 | 4.3 | 0.00 | 0.00 | 0.00 | 51 | 1100.0 |
| 20260506181310 | 63 | 360 | 2.6 | 2.6 | 0.00 | 0.00 | 0.00 | 49 | 1100.0 |
| 20260506180310 | 63 | 360 | 2.6 | 2.6 | 0.00 | 0.00 | 0.00 | 49 | 1100.0 |
| 20260506175309 | 65 | 67 | 1.7 | 0.0 | 0.00 | 0.00 | 0.00 | 46 | 1100.0 |
| 20260506174315 | 65 | 67 | 1.7 | 0.0 | 0.00 | 0.00 | 0.00 | 46 | 1100.0 |
| 20260506173315 | 67 | 337 | 3.5 | 3.5 | 0.00 | 0.00 | 0.00 | 43 | 1100.0 |
| 20260506172314 | 67 | 337 | 3.5 | 3.5 | 0.00 | 0.00 | 0.00 | 43 | 1100.0 |
| 20260506171315 | 69 | 360 | 1.7 | 1.7 | 0.00 | 0.00 | 0.00 | 41 | 1100.0 |
| 20260506170314 | 69 | 360 | 1.7 | 1.7 | 0.00 | 0.00 | 0.00 | 41 | 1100.0 |
| 20260506165313 | 71 | 337 | 3.5 | 5.2 | 0.00 | 0.00 | 0.00 | 40 | 1100.0 |
| 20260506164313 | 71 | 337 | 3.5 | 5.2 | 0.00 | 0.00 | 0.00 | 40 | 1100.0 |
| 20260506163313 | 73 | 360 | 2.6 | 6.1 | 0.00 | 0.00 | 0.00 | 39 | 1100.0 |
| 20260506162313 | 73 | 360 | 2.6 | 6.1 | 0.00 | 0.00 | 0.00 | 39 | 1100.0 |
| 20260506161314 | 71 | 292 | 1.7 | 1.7 | 0.00 | 0.00 | 0.00 | 42 | 1100.0 |
| 20260506160313 | 71 | 292 | 1.7 | 1.7 | 0.00 | 0.00 | 0.00 | 42 | 1100.0 |
| 20260506155313 | 67 | 337 | 1.7 | 3.5 | 0.00 | 0.00 | 0.00 | 44 | 1100.0 |
| 20260506154312 | 67 | 337 | 1.7 | 3.5 | 0.00 | 0.00 | 0.00 | 44 | 1100.0 |
| 20260506153312 | 67 | 337 | 2.6 | 4.3 | 0.00 | 0.00 | 0.00 | 44 | 1100.0 |
| 20260506152313 | 67 | 337 | 2.6 | 4.3 | 0.00 | 0.00 | 0.00 | 44 | 1100.0 |
| 20260506151312 | 68 | 337 | 2.6 | 5.2 | 0.00 | 0.00 | 0.00 | 42 | 1100.0 |
| 20260506150313 | 68 | 337 | 2.6 | 5.2 | 0.00 | 0.00 | 0.00 | 42 | 1100.0 |
| 20260506145312 | 69 | 22 | 2.6 | 2.6 | 0.00 | 0.00 | 0.00 | 40 | 1100.0 |
| 20260506144312 | 69 | 22 | 2.6 | 2.6 | 0.00 | 0.00 | 0.00 | 40 | 1100.0 |
| 20260506143311 | 71 | 337 | 3.5 | 4.3 | 0.00 | 0.00 | 0.00 | 38 | 1100.0 |
| 20260506142313 | 71 | 337 | 3.5 | 4.3 | 0.00 | 0.00 | 0.00 | 38 | 1100.0 |
| 20260506141313 | 76 | 315 | 3.5 | 4.3 | 0.00 | 0.00 | 0.00 | 36 | 1100.0 |
| 20260506140312 | 76 | 315 | 3.5 | 4.3 | 0.00 | 0.00 | 0.00 | 36 | 1100.0 |
| 20260506135311 | 76 | 22 | 5.2 | 7.0 | 0.00 | 0.00 | 0.00 | 35 | 1100.0 |
| 20260506134311 | 76 | 22 | 5.2 | 7.0 | 0.00 | 0.00 | 0.00 | 35 | 1100.0 |
| 20260506133311 | 76 | 337 | 3.5 | 5.2 | 0.00 | 0.00 | 0.00 | 36 | 1100.0 |
| 20260506132310 | 76 | 337 | 3.5 | 5.2 | 0.00 | 0.00 | 0.00 | 36 | 1100.0 |
| 20260506131310 | 73 | 45 | 5.2 | 12.2 | 0.00 | 0.00 | 0.00 | 38 | 1100.0 |
| 20260506130311 | 73 | 45 | 5.2 | 12.2 | 0.00 | 0.00 | 0.00 | 38 | 1100.0 |
| 20260506125310 | 72 | 45 | 3.5 | 5.2 | 0.00 | 0.00 | 0.00 | 40 | 1100.0 |
| 20260506124310 | 72 | 45 | 3.5 | 5.2 | 0.00 | 0.00 | 0.00 | 40 | 1100.0 |
| 20260506123310 | 71 | 22 | 2.6 | 7.0 | 0.00 | 0.00 | 0.00 | 41 | 1100.0 |
| 20260506122310 | 71 | 22 | 2.6 | 7.0 | 0.00 | 0.00 | 0.00 | 41 | 1100.0 |
| 20260506121310 | 72 | 292 | 2.6 | 2.6 | 0.00 | 0.00 | 0.00 | 46 | 1100.0 |
| 20260506120309 | 72 | 292 | 2.6 | 2.6 | 0.00 | 0.00 | 0.00 | 46 | 1100.0 |
| 20260506115314 | 69 | 360 | 1.7 | 1.7 | 0.00 | 0.00 | 0.00 | 45 | 1100.0 |
| 20260506114314 | 69 | 360 | 1.7 | 1.7 | 0.00 | 0.00 | 0.00 | 45 | 1100.0 |
| 20260506113315 | 68 | 360 | 3.5 | 2.6 | 0.00 | 0.00 | 0.00 | 45 | 1100.0 |
| 20260506112314 | 68 | 360 | 3.5 | 2.6 | 0.00 | 0.00 | 0.00 | 45 | 1100.0 |
| 20260506111313 | 67 | 360 | 1.7 | 3.5 | 0.00 | 0.00 | 0.00 | 47 | 1100.0 |
| 20260506110314 | 67 | 360 | 1.7 | 3.5 | 0.00 | 0.00 | 0.00 | 47 | 1100.0 |
| 20260506105314 | 70 | 202 | 3.5 | 2.6 | 0.00 | 0.00 | 0.00 | 49 | 1100.0 |
| 20260506104313 | 70 | 202 | 3.5 | 2.6 | 0.00 | 0.00 | 0.00 | 49 | 1100.0 |
| 20260506103313 | 67 | 337 | 2.6 | 3.5 | 0.00 | 0.00 | 0.00 | 51 | 1100.0 |
| 20260506102313 | 67 | 337 | 2.6 | 3.5 | 0.00 | 0.00 | 0.00 | 51 | 1100.0 |
| 20260506101313 | 67 | 45 | 2.6 | 1.7 | 0.00 | 0.00 | 0.00 | 50 | 1100.0 |
| 20260506100312 | 67 | 45 | 2.6 | 1.7 | 0.00 | 0.00 | 0.00 | 50 | 1100.0 |
| 20260506095312 | 68 | 292 | 1.7 | 3.5 | 0.00 | 0.00 | 0.00 | 47 | 1100.0 |
| 20260506094313 | 68 | 292 | 1.7 | 3.5 | 0.00 | 0.00 | 0.00 | 47 | 1100.0 |
| 20260506093312 | 67 | 135 | 0.9 | 0.0 | 0.00 | 0.00 | 0.00 | 50 | 1100.0 |
| 20260506092313 | 67 | 135 | 0.9 | 0.0 | 0.00 | 0.00 | 0.00 | 50 | 1100.0 |
| 20260506091313 | 66 | 360 | 0.9 | 2.6 | 0.00 | 0.00 | 0.00 | 52 | 1100.0 |
| 20260506090313 | 66 | 360 | 0.9 | 2.6 | 0.00 | 0.00 | 0.00 | 52 | 1100.0 |
| 20260506085312 | 65 | 292 | 2.6 | 3.5 | 0.00 | 0.00 | 0.00 | 57 | 1100.0 |
| 20260506084311 | 65 | 292 | 2.6 | 3.5 | 0.00 | 0.00 | 0.00 | 57 | 1100.0 |
| 20260506083312 | 62 | 360 | 2.6 | 2.6 | 0.00 | 0.00 | 0.00 | 63 | 1100.0 |
| 20260506082312 | 62 | 360 | 2.6 | 2.6 | 0.00 | 0.00 | 0.00 | 63 | 1100.0 |
| 20260506081311 | 59 | 292 | 2.6 | 2.6 | 0.00 | 0.00 | 0.00 | 68 | 1100.0 |
| 20260506080311 | 59 | 292 | 2.6 | 2.6 | 0.00 | 0.00 | 0.00 | 68 | 1100.0 |
| 20260506073310 | 58 | 270 | 1.7 | 4.3 | 0.00 | 0.00 | 0.00 | 69 | 1100.0 |
| 20260506072310 | 58 | 270 | 1.7 | 4.3 | 0.00 | 0.00 | 0.00 | 69 | 1100.0 |
| 20260506071310 | 56 | 337 | 3.5 | 3.5 | 0.00 | 0.00 | 0.00 | 70 | 1100.0 |
| 20260506070310 | 56 | 337 | 3.5 | 3.5 | 0.00 | 0.00 | 0.00 | 70 | 1100.0 |
| 20260506062311 | 53 | 360 | 3.5 | 3.5 | 0.00 | 0.00 | 0.00 | 79 | 1100.0 |
| 20260506061309 | 53 | 337 | 2.6 | 4.3 | 0.00 | 0.00 | 0.00 | 82 | 1100.0 |
| 20260506060314 | 53 | 337 | 2.6 | 4.3 | 0.00 | 0.00 | 0.00 | 82 | 1100.0 |
| 20260506051313 | 49 | 45 | 4.3 | 2.6 | 0.00 | 0.00 | 0.00 | 88 | 1100.0 |
| 20260506050314 | 49 | 45 | 4.3 | 2.6 | 0.00 | 0.00 | 0.00 | 88 | 1100.0 |
| 20260506044313 | 48 | 337 | 4.3 | 11.3 | 0.00 | 0.00 | 0.00 | 88 | 1100.0 |
| 20260506043314 | 48 | 292 | 4.3 | 8.7 | 0.00 | 0.00 | 0.00 | 88 | 1100.0 |
| 20260506042314 | 48 | 292 | 4.3 | 8.7 | 0.00 | 0.00 | 0.00 | 88 | 1100.0 |
| 20260506041314 | 48 | 360 | 2.6 | 5.2 | 0.00 | 0.00 | 0.00 | 87 | 1100.0 |
| 20260506040312 | 48 | 360 | 2.6 | 5.2 | 0.00 | 0.00 | 0.00 | 87 | 1100.0 |